Columbus, OH

1:40 PM EDT on October 18, 2017 (GMT -0400)
Port Columbus International

Weather History for KCMH - March, 2013

Change the Weather History Date:

Tuesday, March 19, 2013

  Actual Average Record
Temperature  
Mean Temperature 35 °F 43 °F  
Max Temperature 40 °F 52 °F 78 °F (2012)
Min Temperature 30 °F 34 °F 8 °F (1885)
Degree Days  
Heating Degree Days 30 22  
Month to date heating degree days 518 480  
Since 1 July heating degree days 4376 4475  
Cooling Degree Days 0 0  
Month to date cooling degree days 0 0  
Year to date cooling degree days 0 0  
Moisture  
Dew Point 25 °F    
Average Humidity 60    
Maximum Humidity 79    
Minimum Humidity 40    
Precipitation  
Precipitation T in 0.10 in 2.32 in (1943)
Month to date precipitation 2.67 1.72  
Year to date precipitation 6.74 6.70  
Snow  
Snow 0.00 in 0.10 in 9.60 in (1906)
Month to date snowfall 8.0 3.1  
Since 1 July snowfall 37.0 24.5  
Snow Depth 0.00 in    
Sea Level Pressure  
Sea Level Pressure 29.89 in    
Wind  
Wind Speed 20 mph (West)    
Max Wind Speed 35 mph    
Max Gust Speed 43 mph    
Visibility 10 miles    
Events Rain    
T = Trace of Precipitation, MM = Missing Value Source: NWS Daily Summary

Daily Weather History Graph

Daily Weather History Graph

Search for Another Location

Airport or City:

Trip Planner

Search our weather history database for the weather conditions in past years. The results will help you decide how hot, cold, wet, or windy it might be!

Date:

Astronomy

Mar. 19, 2013 Rise Set
Actual Time 7:36 AM EDT 7:42 PM EDT
Civil Twilight 7:09 AM EDT 8:09 PM EDT
Nautical Twilight 6:37 AM EDT 8:41 PM EDT
Astronomical Twilight 6:05 AM EDT 9:13 PM EDT
Moon 12:25 PM EDT (3/19) 2:28 AM EDT (3/19)
Length of Visible Light 13h 00m
Length of Day
12h 06m
Waxing Crescent, 49% of the Moon is Illuminated
Mar 19
Waxing Crescent
Mar 19
First Quarter
Mar 27
Full
Apr 3
Last Quarter
Apr 10
New

Hourly Weather History & Observations

Time (EDT) Temp. Windchill Dew Point Humidity Pressure Visibility Wind Dir Wind Speed Gust Speed Precip Events Conditions
12:14 AM 39.2 °F 32.0 °F 35.6 °F 87% 29.78 in 9.0 mi WNW 11.5 mph 23.0 mph 0.00 in Rain Light Rain
12:40 AM 39.2 °F 31.6 °F 33.8 °F 81% 29.78 in 10.0 mi West 12.7 mph 23.0 mph 0.01 in   Overcast
12:51 AM 39.0 °F 31.0 °F 34.0 °F 82% 29.79 in 10.0 mi West 13.8 mph - 0.01 in   Overcast
1:02 AM 39.2 °F 33.0 °F 33.8 °F 81% 29.79 in 10.0 mi West 9.2 mph - N/A   Overcast
1:40 AM 39.2 °F 32.0 °F 33.8 °F 81% 29.78 in 10.0 mi West 11.5 mph - N/A   Overcast
1:51 AM 39.9 °F 30.8 °F 32.0 °F 73% 29.80 in 10.0 mi West 18.4 mph 24.2 mph N/A   Overcast
2:04 AM 39.2 °F 30.8 °F 32.0 °F 75% 29.78 in 10.0 mi West 15.0 mph - N/A   Overcast
2:51 AM 39.9 °F 32.5 °F 30.9 °F 70% 29.81 in 10.0 mi WSW 12.7 mph 23.0 mph N/A   Overcast
3:51 AM 39.9 °F 31.8 °F 30.9 °F 70% 29.81 in 10.0 mi WSW 15.0 mph - N/A   Overcast
4:42 AM 39.2 °F 30.5 °F 32.0 °F 75% 29.80 in 4.0 mi WSW 16.1 mph - 0.00 in Rain Light Rain
4:51 AM 37.9 °F 26.6 °F 30.0 °F 73% 29.81 in 7.0 mi WSW 25.3 mph 42.6 mph 0.00 in Rain Light Rain
5:08 AM 37.4 °F 27.8 °F 30.2 °F 75% 29.81 in 10.0 mi West 17.3 mph 29.9 mph 0.00 in   Overcast
5:43 AM 35.6 °F 26.2 °F 28.4 °F 75% 29.82 in 10.0 mi West 15.0 mph - 0.00 in   Overcast
5:51 AM 35.6 °F 24.8 °F 26.6 °F 70% 29.82 in 10.0 mi West 19.6 mph - N/A   Mostly Cloudy
6:25 AM 33.8 °F 22.5 °F 26.6 °F 75% 29.83 in 10.0 mi West 19.6 mph - N/A   Partly Cloudy
6:51 AM 33.1 °F 22.2 °F 26.1 °F 75% 29.86 in 10.0 mi West 17.3 mph - N/A   Clear
7:51 AM 32.0 °F 21.2 °F 25.0 °F 75% 29.88 in 10.0 mi West 16.1 mph - N/A   Partly Cloudy
8:51 AM 30.9 °F 20.2 °F 24.1 °F 76% 29.88 in 10.0 mi West 15.0 mph - N/A   Mostly Cloudy
9:51 AM 30.9 °F 18.7 °F 21.0 °F 67% 29.90 in 10.0 mi West 19.6 mph - N/A   Overcast
10:51 AM 30.9 °F 18.1 °F 19.0 °F 61% 29.91 in 10.0 mi West 21.9 mph 32.2 mph N/A   Mostly Cloudy
11:51 AM 32.0 °F 18.6 °F 19.0 °F 59% 29.94 in 10.0 mi West 25.3 mph 34.5 mph N/A   Mostly Cloudy
12:51 PM 34.0 °F 21.5 °F 19.0 °F 54% 29.94 in 10.0 mi West 24.2 mph 31.1 mph N/A   Overcast
1:51 PM 36.0 °F 23.2 °F 19.0 °F 50% 29.94 in 10.0 mi West 28.8 mph 35.7 mph N/A   Mostly Cloudy
2:51 PM 37.9 °F 27.1 °F 19.0 °F 47% 29.94 in 10.0 mi West 23.0 mph 34.5 mph N/A   Overcast
3:51 PM 37.9 °F 25.9 °F 18.0 °F 45% 29.96 in 10.0 mi West 28.8 mph 33.4 mph N/A   Mostly Cloudy
4:51 PM 39.0 °F 28.3 °F 19.0 °F 45% 29.96 in 10.0 mi West 24.2 mph 33.4 mph N/A   Overcast
5:51 PM 39.0 °F 28.5 °F 18.0 °F 43% 29.98 in 10.0 mi West 23.0 mph 34.5 mph N/A   Mostly Cloudy
6:51 PM 37.9 °F 26.8 °F 16.0 °F 41% 30.00 in 10.0 mi WNW 24.2 mph 39.1 mph N/A   Scattered Clouds
7:51 PM 37.0 °F 26.7 °F 16.0 °F 42% 30.01 in 10.0 mi West 19.6 mph 25.3 mph N/A   Partly Cloudy
8:51 PM 35.1 °F 25.5 °F 18.0 °F 50% 30.03 in 10.0 mi West 15.0 mph - N/A   Partly Cloudy
9:51 PM 35.1 °F 24.5 °F 17.1 °F 48% 30.05 in 10.0 mi West 18.4 mph 23.0 mph N/A   Clear
10:51 PM 35.1 °F 25.2 °F 16.0 °F 46% 30.05 in 10.0 mi West 16.1 mph - N/A   Clear
11:51 PM 35.1 °F 23.8 °F 16.0 °F 46% 30.04 in 10.0 mi West 20.7 mph 27.6 mph N/A   Clear